Time,TemperatureF,DewpointF,PressureIn,WindDirection,WindDirectionDegrees,WindSpeedMPH,WindSpeedGustMPH,Humidity,HourlyPrecipIn,Conditions,Clouds,dailyrainin,SoftwareType,DateUTC
2013-01-27 00:02:00,1.0,-4.5,30.29,North,0,0.0,-999.0,77,-99.99,,,0.00,Acu-Link.com,2013-01-27 05:02:00,
2013-01-27 00:17:00,0.5,-5.0,30.29,North,0,1.6,-999.0,77,-99.99,,,0.00,Acu-Link.com,2013-01-27 05:17:00,
2013-01-27 00:32:00,-0.8,-5.9,30.30,North,0,3.8,-999.0,78,-99.99,,,0.00,Acu-Link.com,2013-01-27 05:32:00,
2013-01-27 00:47:00,-1.3,-6.7,30.30,North,0,0.0,-999.0,77,-99.99,,,0.00,Acu-Link.com,2013-01-27 05:47:00,
2013-01-27 01:03:00,-1.5,-6.4,30.30,North,0,0.0,-999.0,79,-99.99,,,0.00,Acu-Link.com,2013-01-27 06:03:00,
2013-01-27 01:18:00,-2.0,-7.2,30.31,North,0,0.0,-999.0,78,-99.99,,,0.00,Acu-Link.com,2013-01-27 06:18:00,
2013-01-27 01:33:00,-2.4,-7.0,30.31,North,0,0.0,-999.0,80,-99.99,,,0.00,Acu-Link.com,2013-01-27 06:33:00,
2013-01-27 01:48:00,-2.9,-7.5,30.32,North,0,0.0,-999.0,80,-99.99,,,0.00,Acu-Link.com,2013-01-27 06:48:00,
2013-01-27 02:03:00,-2.9,-7.8,30.33,North,0,0.0,-999.0,79,-99.99,,,0.00,Acu-Link.com,2013-01-27 07:03:00,
2013-01-27 02:18:00,-3.1,-8.5,30.33,North,0,1.1,-999.0,77,-99.99,,,0.00,Acu-Link.com,2013-01-27 07:18:00,
2013-01-27 02:34:00,-2.7,-8.4,30.33,North,0,0.0,-999.0,76,-99.99,,,0.00,Acu-Link.com,2013-01-27 07:34:00,
2013-01-27 02:49:00,-2.6,-8.2,30.33,North,0,1.6,-999.0,76,-99.99,,,0.00,Acu-Link.com,2013-01-27 07:49:00,
2013-01-27 03:04:00,-3.5,-9.9,30.34,North,0,0.0,-999.0,73,-99.99,,,0.00,Acu-Link.com,2013-01-27 08:04:00,
2013-01-27 03:19:00,-3.5,-9.6,30.34,North,0,0.0,-999.0,74,-99.99,,,0.00,Acu-Link.com,2013-01-27 08:19:00,
2013-01-27 03:34:00,-3.3,-10.3,30.34,North,0,0.0,-999.0,71,-99.99,,,0.00,Acu-Link.com,2013-01-27 08:34:00,
2013-01-27 03:50:00,-2.7,-10.1,30.35,North,0,3.1,-999.0,70,-99.99,,,0.00,Acu-Link.com,2013-01-27 08:50:00,
2013-01-27 04:16:00,-3.3,-10.6,30.36,North,0,1.6,-999.0,70,-99.99,,,0.00,Acu-Link.com,2013-01-27 09:16:00,
2013-01-27 04:32:00,-3.6,-11.2,30.36,North,0,2.7,-999.0,69,-99.99,,,0.00,Acu-Link.com,2013-01-27 09:32:00,
2013-01-27 04:47:00,-3.6,-11.8,30.36,North,0,3.8,-999.0,67,-99.99,,,0.00,Acu-Link.com,2013-01-27 09:47:00,
2013-01-27 05:02:00,-4.2,-12.9,30.36,North,0,2.2,-999.0,65,-99.99,,,0.00,Acu-Link.com,2013-01-27 10:02:00,
2013-01-27 05:17:00,-5.4,-13.5,30.37,North,0,2.2,-999.0,67,-99.99,,,0.00,Acu-Link.com,2013-01-27 10:17:00,
2013-01-27 05:32:00,-5.3,-13.4,30.38,North,0,2.2,-999.0,67,-99.99,,,0.00,Acu-Link.com,2013-01-27 10:32:00,
2013-01-27 05:47:00,-6.2,-14.2,30.38,North,0,2.7,-999.0,67,-99.99,,,0.00,Acu-Link.com,2013-01-27 10:47:00,
2013-01-27 06:03:00,-6.0,-14.0,30.39,North,0,0.0,-999.0,67,-99.99,,,0.00,Acu-Link.com,2013-01-27 11:03:00,
2013-01-27 06:18:00,-4.9,-13.6,30.40,North,0,1.6,-999.0,65,-99.99,,,0.00,Acu-Link.com,2013-01-27 11:18:00,
2013-01-27 06:33:00,-4.9,-13.6,30.41,North,0,0.0,-999.0,65,-99.99,,,0.00,Acu-Link.com,2013-01-27 11:33:00,
2013-01-27 06:48:00,-6.0,-14.3,30.41,North,0,0.0,-999.0,66,-99.99,,,0.00,Acu-Link.com,2013-01-27 11:48:00,
2013-01-27 07:03:00,-6.0,-14.3,30.41,North,0,0.0,-999.0,66,-99.99,,,0.00,Acu-Link.com,2013-01-27 12:03:00,
2013-01-27 07:19:00,-6.2,-14.2,30.42,North,0,1.1,-999.0,67,-99.99,,,0.00,Acu-Link.com,2013-01-27 12:19:00,
2013-01-27 07:34:00,-7.1,-14.5,30.42,North,0,2.2,-999.0,69,-99.99,,,0.00,Acu-Link.com,2013-01-27 12:34:00,
2013-01-27 07:49:00,-6.5,-14.0,30.43,North,0,0.0,-999.0,69,-99.99,,,0.00,Acu-Link.com,2013-01-27 12:49:00,
2013-01-27 08:04:00,-5.8,-13.6,30.44,North,0,3.1,-999.0,68,-99.99,,,0.00,Acu-Link.com,2013-01-27 13:04:00,
2013-01-27 08:19:00,-4.5,-12.7,30.44,North,0,1.1,-999.0,67,-99.99,,,0.00,Acu-Link.com,2013-01-27 13:19:00,
2013-01-27 08:35:00,-3.6,-12.4,30.44,North,0,0.0,-999.0,65,-99.99,,,0.00,Acu-Link.com,2013-01-27 13:35:00,
2013-01-27 08:50:00,-2.0,-11.2,30.46,North,0,1.6,-999.0,64,-99.99,,,0.00,Acu-Link.com,2013-01-27 13:50:00,
2013-01-27 09:05:00,-0.2,-10.4,30.46,North,0,1.6,-999.0,61,-99.99,,,0.00,Acu-Link.com,2013-01-27 14:05:00,
2013-01-27 09:20:00,1.0,-10.2,30.46,North,0,2.2,-999.0,58,-99.99,,,0.00,Acu-Link.com,2013-01-27 14:20:00,
2013-01-27 09:35:00,1.6,-9.7,30.47,North,0,4.3,-999.0,58,-99.99,,,0.00,Acu-Link.com,2013-01-27 14:35:00,
2013-01-27 09:51:00,3.2,-9.3,30.47,North,0,1.6,-999.0,55,-99.99,,,0.00,Acu-Link.com,2013-01-27 14:51:00,
2013-01-27 10:06:00,3.2,-9.7,30.47,North,0,0.0,-999.0,54,-99.99,,,0.00,Acu-Link.com,2013-01-27 15:06:00,
2013-01-27 10:21:00,5.5,-8.6,30.48,North,0,2.2,-999.0,51,-99.99,,,0.00,Acu-Link.com,2013-01-27 15:21:00,
2013-01-27 10:36:00,8.4,-7.6,30.47,North,0,2.2,-999.0,47,-99.99,,,0.00,Acu-Link.com,2013-01-27 15:36:00,
2013-01-27 10:51:00,8.1,-7.1,30.48,North,0,0.0,-999.0,49,-99.99,,,0.00,Acu-Link.com,2013-01-27 15:51:00,
2013-01-27 11:07:00,11.7,-5.5,30.48,North,0,0.0,-999.0,45,-99.99,,,0.00,Acu-Link.com,2013-01-27 16:07:00,
2013-01-27 11:22:00,11.8,-5.8,30.48,North,0,0.0,-999.0,44,-99.99,,,0.00,Acu-Link.com,2013-01-27 16:22:00,
2013-01-27 11:37:00,12.2,-6.5,30.47,North,0,4.7,-999.0,42,-99.99,,,0.00,Acu-Link.com,2013-01-27 16:37:00,
2013-01-27 11:52:00,12.0,-6.6,30.47,North,0,0.0,-999.0,42,-99.99,,,0.00,Acu-Link.com,2013-01-27 16:52:00,
2013-01-27 12:07:00,13.6,-6.7,30.46,North,0,2.2,-999.0,39,-99.99,,,0.00,Acu-Link.com,2013-01-27 17:07:00,
2013-01-27 12:23:00,12.7,-6.0,30.47,North,0,3.8,-999.0,42,-99.99,,,0.00,Acu-Link.com,2013-01-27 17:23:00,
2013-01-27 12:38:00,14.5,-5.9,30.46,North,0,1.6,-999.0,39,-99.99,,,0.00,Acu-Link.com,2013-01-27 17:38:00,
2013-01-27 12:53:00,12.7,-5.5,30.46,North,0,1.6,-999.0,43,-99.99,,,0.00,Acu-Link.com,2013-01-27 17:53:00,
2013-01-27 13:08:00,13.8,-6.0,30.45,North,0,1.6,-999.0,40,-99.99,,,0.00,Acu-Link.com,2013-01-27 18:08:00,
2013-01-27 13:23:00,13.8,-6.0,30.45,North,0,2.2,-999.0,40,-99.99,,,0.00,Acu-Link.com,2013-01-27 18:23:00,
2013-01-27 13:39:00,13.3,-6.5,30.44,North,0,3.1,-999.0,40,-99.99,,,0.00,Acu-Link.com,2013-01-27 18:39:00,
2013-01-27 13:54:00,14.0,-6.9,30.44,North,0,1.1,-999.0,38,-99.99,,,0.00,Acu-Link.com,2013-01-27 18:54:00,
2013-01-27 14:09:00,12.0,-7.6,30.44,North,0,2.7,-999.0,40,-99.99,,,0.00,Acu-Link.com,2013-01-27 19:09:00,
2013-01-27 14:24:00,13.1,-7.2,30.44,North,0,2.7,-999.0,39,-99.99,,,0.00,Acu-Link.com,2013-01-27 19:24:00,
2013-01-27 14:39:00,13.6,-8.3,30.45,North,0,0.0,-999.0,36,-99.99,,,0.00,Acu-Link.com,2013-01-27 19:39:00,
2013-01-27 14:55:00,13.1,-7.7,30.45,North,0,0.0,-999.0,38,-99.99,,,0.00,Acu-Link.com,2013-01-27 19:55:00,
2013-01-27 15:10:00,12.2,-7.5,30.45,North,0,3.1,-999.0,40,-99.99,,,0.00,Acu-Link.com,2013-01-27 20:10:00,
2013-01-27 15:25:00,11.8,-7.8,30.45,North,0,0.0,-999.0,40,-99.99,,,0.00,Acu-Link.com,2013-01-27 20:25:00,
2013-01-27 15:40:00,11.1,-7.0,30.45,North,0,2.2,-999.0,43,-99.99,,,0.00,Acu-Link.com,2013-01-27 20:40:00,
2013-01-27 15:56:00,9.5,-7.5,30.46,North,0,2.7,-999.0,45,-99.99,,,0.00,Acu-Link.com,2013-01-27 20:56:00,
2013-01-27 16:11:00,9.9,-8.1,30.45,North,0,0.0,-999.0,43,-99.99,,,0.00,Acu-Link.com,2013-01-27 21:11:00,
2013-01-27 16:26:00,8.8,-8.2,30.46,North,0,0.0,-999.0,45,-99.99,,,0.00,Acu-Link.com,2013-01-27 21:26:00,
2013-01-27 16:41:00,8.1,-7.5,30.46,North,0,0.0,-999.0,48,-99.99,,,0.00,Acu-Link.com,2013-01-27 21:41:00,
2013-01-27 16:56:00,7.0,-6.9,30.47,North,0,0.0,-999.0,52,-99.99,,,0.00,Acu-Link.com,2013-01-27 21:56:00,
2013-01-27 17:12:00,6.1,-7.0,30.47,North,0,0.0,-999.0,54,-99.99,,,0.00,Acu-Link.com,2013-01-27 22:12:00,
2013-01-27 17:27:00,5.2,-7.8,30.48,North,0,0.0,-999.0,54,-99.99,,,0.00,Acu-Link.com,2013-01-27 22:27:00,
2013-01-27 17:42:00,4.6,-7.9,30.48,North,0,0.0,-999.0,55,-99.99,,,0.00,Acu-Link.com,2013-01-27 22:42:00,
2013-01-27 17:57:00,3.9,-8.2,30.48,North,0,0.0,-999.0,56,-99.99,,,0.00,Acu-Link.com,2013-01-27 22:57:00,
2013-01-27 18:12:00,4.1,-7.7,30.48,North,0,0.0,-999.0,57,-99.99,,,0.00,Acu-Link.com,2013-01-27 23:12:00,
2013-01-27 18:28:00,3.6,-7.5,30.48,North,0,0.0,-999.0,59,-99.99,,,0.00,Acu-Link.com,2013-01-27 23:28:00,
2013-01-27 18:43:00,4.3,-6.5,30.49,North,0,0.0,-999.0,60,-99.99,,,0.00,Acu-Link.com,2013-01-27 23:43:00,
2013-01-27 18:58:00,4.1,-6.3,30.48,North,0,0.0,-999.0,61,-99.99,,,0.00,Acu-Link.com,2013-01-27 23:58:00,
2013-01-27 19:13:00,3.7,-6.3,30.47,North,0,1.1,-999.0,62,-99.99,,,0.00,Acu-Link.com,2013-01-28 00:13:00,
2013-01-27 19:28:00,3.7,-5.7,30.48,North,0,1.6,-999.0,64,-99.99,,,0.00,Acu-Link.com,2013-01-28 00:28:00,
2013-01-27 19:44:00,3.7,-5.4,30.48,North,0,0.0,-999.0,65,-99.99,,,0.00,Acu-Link.com,2013-01-28 00:44:00,
2013-01-27 19:59:00,4.5,-5.0,30.47,North,0,0.0,-999.0,64,-99.99,,,0.00,Acu-Link.com,2013-01-28 00:59:00,
2013-01-27 20:14:00,3.9,-5.2,30.46,North,0,0.0,-999.0,65,-99.99,,,0.00,Acu-Link.com,2013-01-28 01:14:00,
2013-01-27 20:29:00,3.9,-5.5,30.46,North,0,0.0,-999.0,64,-99.99,,,0.00,Acu-Link.com,2013-01-28 01:29:00,
2013-01-27 20:44:00,3.7,-5.7,30.45,North,0,0.0,-999.0,64,-99.99,,,0.00,Acu-Link.com,2013-01-28 01:44:00,
2013-01-27 21:00:00,3.7,-5.7,30.46,North,0,0.0,-999.0,64,-99.99,,,0.00,Acu-Link.com,2013-01-28 02:00:00,
2013-01-27 21:15:00,3.7,-5.7,30.45,North,0,0.0,-999.0,64,-99.99,,,0.00,Acu-Link.com,2013-01-28 02:15:00,
2013-01-27 21:30:00,2.5,-5.6,30.45,North,0,0.0,-999.0,68,-99.99,,,0.00,Acu-Link.com,2013-01-28 02:30:00,
2013-01-27 21:45:00,3.0,-5.1,30.44,North,0,0.0,-999.0,68,-99.99,,,0.00,Acu-Link.com,2013-01-28 02:45:00,
2013-01-27 22:00:00,3.0,-5.1,30.45,North,0,0.0,-999.0,68,-99.99,,,0.00,Acu-Link.com,2013-01-28 03:00:00,
2013-01-27 22:16:00,3.0,-5.1,30.44,North,0,0.0,-999.0,68,-99.99,,,0.00,Acu-Link.com,2013-01-28 03:16:00,
2013-01-27 22:31:00,3.0,-5.1,30.45,North,0,0.0,-999.0,68,-99.99,,,0.00,Acu-Link.com,2013-01-28 03:31:00,
2013-01-27 22:46:00,3.9,-4.6,30.45,North,0,0.0,-999.0,67,-99.99,,,0.00,Acu-Link.com,2013-01-28 03:46:00,
2013-01-27 23:01:00,3.9,-4.9,30.44,North,0,0.0,-999.0,66,-99.99,,,0.00,Acu-Link.com,2013-01-28 04:01:00,
2013-01-27 23:16:00,4.1,-5.0,30.44,North,0,0.0,-999.0,65,-99.99,,,0.00,Acu-Link.com,2013-01-28 04:16:00,
2013-01-27 23:32:00,4.6,-4.5,30.44,North,0,0.0,-999.0,65,-99.99,,,0.00,Acu-Link.com,2013-01-28 04:32:00,
2013-01-27 23:47:00,5.4,-4.5,30.44,North,0,0.0,-999.0,63,-99.99,,,0.00,Acu-Link.com,2013-01-28 04:47:00,